Location: Beetenbrück
(52.8113°N, 9.5946°E)
Time: 21:23:07
(UTC+00:00)

Cosmos 1975 Rocket - Pass Details

Date: 14 April 2026
Orbit: 597 x 626 km, 82.5° (Epoch: 12 May)

Event Time Altitude Azimuth Distance (km) Brightness Sun altitude
Rises 21:42:53 0° 348° (NNW) 2,926 7.8 -24.0°
Reaches altitude 10° 21:45:08 10° 347° (NNW) 2,013 6.7 -24.2°
Enters shadow 21:49:35 78° 263° (W) 646 3.0 -24.5°
